カタログに戻る

METEOR 2-7 DEB

運用中PO
NORAD 35424·DEBRIS·🇷🇺 Russia

打ち上げ May 14, 1981 から Plesetsk Cosmodrome

Loading…

次のパス (今後24時間)

TLE

最新Source: Space-Track

元期: Sep 14, 2026, 12:50 UTC

1 35424U 81043M   26257.53496280  .00015470  00000-0  23019-2 0  9997
2 35424  81.2413 194.9679 0023165 114.2783 246.0846 14.74673298262479

AllMySatでMETEOR 2-7 DEBをリアルタイム追跡

Download on the App Store